This demonstration page uses our WeatherBlox Daily Observations layout. Learn more.

39.92423, -83.80882

Hourly Observations for August 1, 2016

Temp ( °F °C ) Dew Point ( °F °C ) Humidity (%) Winds ( mph kmh ) Pressure ( in mb ) Visibility ( mi km ) Precip ( " mm )
12:56 am 00:56 Clear 68 20 67 19.4 96 96 W 3 6 30.04 1017 10 16.0934 0 0
1:56 am 01:56 Mostly Clear 68 20 66 18.9 93 93 Calm 30.04 1017 10 16.0934 0 0
2:56 am 02:56 Mostly Cloudy 67 19.4 66 18.9 97 97 Calm 30.04 1017 10 16.0934 0 0
3:56 am 03:56 Mostly Clear 67 19.4 66 18.9 97 97 Calm 30.04 1017 10 16.0934 0 0
4:56 am 04:56 Partly Cloudy 68 20 66 18.9 93 93 Calm 30.04 1017 10 16.0934 0 0
5:56 am 05:56 Mostly Clear 67 19.4 66 18.9 97 97 Calm 30.05 1018 9 14.48406 0 0
6:47 am 06:47 Sunny with Mist and Fog 64 18 64 18 100 100 SW 3 6 30.09 1019 2 3.21868 0 0
6:56 am 06:56 Sunny with Mist and Fog 65 18.3 65 18.3 100 100 Calm 30.06 1018 2 3.21868 0 0
7:20 am 07:20 Sunny with Mist and Fog 66 19 66 19 100 100 Calm N/A 5 8.0467 0 0
7:56 am 07:56 Sunny 70 21.1 68 20 93 93 undefined N/A 30.06 1018 10 16.0934 0 0
8:56 am 08:56 Sunny 74 23.3 69 20.6 85 85 Calm 30.08 1019 10 16.0934 0 0
9:56 am 09:56 Sunny 77 25 71 21.7 82 82 undefined N/A N/A 10 16.0934 0 0
10:56 am 10:56 Sunny 78 25.6 69 20.6 74 74 Calm 30.08 1019 10 16.0934 0 0
11:56 am 11:56 Mostly Cloudy 81 27.2 70 21.1 69 69 N 3 6 30.09 1019 10 16.0934 0 0
12:04 pm 12:04 Partly Cloudy 81 27 70 21 70 70 NW 5 7 30.06 1018 10 16.0934 0 0
12:56 pm 12:56 Sunny 81 27.2 69 20.6 67 67 Calm 30.08 1019 10 16.0934 0 0
2:56 pm 14:56 Mostly Sunny 80 26.7 68 20 67 67 undefined N/A 30.08 1019 10 16.0934 0 0
3:56 pm 15:56 Sunny 81 27.2 70 21.1 69 69 Calm 30.05 1018 10 16.0934 0 0
4:56 pm 16:56 Sunny 82 27.8 71 21.7 69 69 S 5 7 30.04 1017 10 16.0934 0 0
5:56 pm 17:56 Sunny 83 28.3 71 21.7 67 67 SSE 6 9 30.03 1017 10 16.0934 0 0
6:56 pm 18:56 Sunny 79 26.1 72 22.2 79 79 S 9 15 30.02 1017 10 16.0934 0 0
7:56 pm 19:56 Sunny 79 26.1 68 20 69 69 W 5 7 30 1016 10 16.0934 0 0
8:56 pm 20:56 Clear 73 22.8 70 21.1 90 90 Calm 30.04 1017 10 16.0934 0 0
9:56 pm 21:56 Clear 71 21.7 69 20.6 94 94 Calm N/A 10 16.0934 0 0
10:56 pm 22:56 Clear 69 20.6 67 19.4 93 93 S 3 6 30.06 1018 7 11.26538 0 0
11:56 pm 23:56 Partly Cloudy with Mist and Fog 68 20 67 19.4 96 96 Calm 30.07 1018 5 8.0467 0 0

Powered by AerisWeather